Location: *
(44.1392°N, 4.8079°E)
Time: 07:37:17
(UTC+00:00)

Cosmos 1328 Rocket - Pass Details

Date: 21 June 2021
Orbit: 602 x 625 km, 82.5° (Epoch: 02 August)

Event Time Altitude Azimuth Distance (km) Brightness Sun altitude
Rises 02:41:03 0° 347° (NNW) 2,881 7.5 -11.0°
Reaches altitude 10° 02:43:17 10° 344° (NNW) 1,976 6.6 -10.8°
Maximum altitude 02:47:34 58° 265° (W) 720 3.7 -10.3°
Drops below altitude 10° 02:51:52 10° 187° (S) 1,974 5.7 -9.7°
Enters shadow 02:52:34 - 185° (S) 2,257 6.0 -9.7°
